Regional Weather Roundup
Issued by NWS Wakefield, VA

Home | Current Version | Previous Version | Text Only | Print | Product List | Glossary On
Versions: 1 2 3 4 5 6 7 8 9 10 11 12 13 14 15 16 17 18 19 20 21 22 23 24 25 26 27 28 29 30 31 32 33 34 35 36 37 38 39 40 41 42 43 44 45 46 47
000
ASUS41 KAKQ 261210
RWRAKQ

REGIONAL WEATHER ROUNDUP
NATIONAL WEATHER SERVICE WAKEFIELD VA
700 AM EST FRI DEC 26 2014

Note: "fair" indicates few or no clouds below 12,000 feet with no
significant weather and/or obstructions to visibility. * = Denotes
station may not report precipitation (e.g., rain,snow,etc.),
thunder or fog.

VAZ042-051-052>054-056-261300-
NORTHERN VIRGINIA

CITY           SKY/WX    TMP DP  RH WIND       PRES   REMARKS
WASH NATIONAL  CLEAR     37  29  72 SW5       30.30S
DULLES         CLEAR     27  25  92 CALM      30.29R
FORT BELVOIR   CLEAR     28  26  94 E1        30.31R
QUANTICO       CLEAR     30  27  88 NW6       30.32R
FREDERICKSBRG* CLEAR     29  29 100 CALM      30.31R
STAFFORD*      CLEAR     26  26 100 CALM      30.35R
WARRENTON      CLEAR     24  24 100 CALM      30.29R
CULPEPER*      CLEAR     25  25 100 CALM      30.30R
MANASSAS*      NOT AVBL
LEESBURG*      CLEAR     32  32 100 NW3       30.29R
WINCHESTER     CLEAR     30  25  80 CALM      30.28R
FRONT ROYAL*   SUNNY     28  27  93 CALM      30.27R
LURAY*         SUNNY     30  30 100 CALM      30.27R
$$

VAZ048-049-060>072-079>083-261300-
CENTRAL AND SOUTH CENTRAL VIRGINIA

CITY           SKY/WX    TMP DP  RH WIND       PRES   REMARKS
RICHMOND       CLEAR     33  28  81 CALM      30.31R
CHESTERFIELD*  MOSUNNY   28  16  59 CALM      30.32R
PETERSBURG*    PTCLDY    27  27  98 CALM      30.32R
HANOVER        CLEAR     28  26  92 CALM      30.33R
TAPPAHANNOCK*  CLEAR     28  26  89 CALM      30.32R
QUINTON*       SUNNY     28  28  96 W3        30.32R
CHARLOTTSVILLE CLEAR     29  26  89 W3        30.28R
GORDONSVILLE*  SUNNY     25  24  95 CALM      30.29R
ORANGE*        CLEAR     28  27  93 CALM      30.31R
LOUISA*        CLEAR     27  25  93 CALM      30.28R
BUMPASS*       SUNNY     27  26  95 CALM      30.30R
FARMVILLE*     PTCLDY    25  25 100 CALM      30.29R
CREWE*         MOSUNNY   27  26  95 CALM      30.30R
FORT PICKETT*  MOSUNNY   29  29  99 CALM      30.30R
CHASE CITY*    MOSUNNY   29  29 100 CALM      30.29S
CLARKSVILLE*   MOSUNNY   28  28 100 CALM      30.29R
SOUTH HILL*    PTCLDY    28  27  96 CALM      30.35S
LAWRENCEVILLE* MOSUNNY   30  30  99 CALM      30.29F
EMPORIA*       CLEAR     28  28 100 CALM      30.32S
$$

VAZ088>098-261300-
SOUTHEAST VIRGINIA

CITY           SKY/WX    TMP DP  RH WIND       PRES   REMARKS
NORFOLK        CLEAR     37  34  89 CALM      30.30R
VIRGINIA BEACH CLEAR     33  31  92 W3        30.29R
NORFOLK NAVAL  PTCLDY    43  35  73 CALM      30.32R
WEST POINT*    CLEAR     30  28  92 CALM      30.34R
SALUDA*        FAIR      30  29  96 CALM      30.30R
NEWPORT NEWS   CLEAR     34  29  82 CALM      30.31R
LANGLEY AFB    CLEAR     34  33  96 CALM      30.31R
FORT EUSTIS    CLEAR     33  33 100 CALM      30.30R
WILLIAMSBURG*  CLEAR     34  34 100 CALM      30.32R
HR EXEC AP*    SUNNY     28  25  86 CALM      30.32R
FRANKLIN*      CLEAR     30 N/A N/A CALM      30.31R
WAKEFIELD      CLEAR     30  27  88 CALM      30.32R
$$

VAZ020-022-025-037-045-261300-
WEST CENTRAL AND SOUTHWEST VIRGINIA

CITY           SKY/WX    TMP DP  RH WIND       PRES   REMARKS
STAUNTON*      CLEAR     24  21  90 CALM      30.29R
WAYNESBORO*    SUNNY     26  24  91 CALM      30.27R
HOT SPRINGS VA PTCLDY    32  25  76 W13       30.20R WCI  22
LYNCHBURG      CLEAR     24  23  96 CALM      30.29R
DANVILLE       PTCLDY    28  25  88 SW5       30.30R
SOUTH BOSTON*  MOSUNNY   25  24  94 CALM      30.30R
MARTINSVILLE   PTCLDY    24  24 100 CALM      30.31R
ROANOKE        PTCLDY    30  26  85 N6        30.31R
BLACKSBURG     PTCLDY    23  22  96 CALM      30.31R
DUBLIN*        CLEAR     28  28 100 SW5       30.29R
MARION*        CLEAR     30  28  91 W3        30.29R
HILLSVILLE*    PTCLDY    28  26  89 SW5       30.26S
RICHLANDS*     SUNNY     32  26  78 CALM      30.26S
WISE*          PTCLDY    32  27  80 SW3       30.26R
ABINGDON*      PTCLDY    31  29  92 CALM      30.28S
$$

MDZ021>025-VAZ099-100-261300-
SOUTHERN MARYLAND AND THE DELMARVA PENINSULA

CITY           SKY/WX    TMP DP  RH WIND       PRES   REMARKS
PATUXENT RIVER CLEAR     29  26  89 W5        30.30R
BAY BRIDGE APT   N/A     37  32  81 W3        30.29S
LEONARDTOWN    CLEAR     30  28  93 CALM      30.32R
DOVER          CLEAR     35  29  79 W5        30.26R
GEORGETOWN     CLEAR     31  27  85 CALM      30.30R
EASTON         CLEAR     34  34 100 CALM      30.33R
CAMBRIDGE      CLEAR     32  30  93 CALM      30.29R
SALISBURY      CLEAR     32  27  81 CALM      30.30R
OCEAN CITY     CLEAR     29  27  92 CALM      30.30R
WALLOPS ISLAND CLEAR     30  28  92 NW3       30.30R
ACCOMACK*      CLEAR     32  30  93 CALM      30.30R
$$

NCZ012>017-030>032-261300-
NORTH CENTRAL AND EASTERN NORTH CAROLINA

CITY           SKY/WX    TMP DP  RH WIND       PRES   REMARKS
ROANOKE RAPIDS MOSUNNY   30  30 100 CALM      30.31R
RALEIGH        MOCLDY    30  27  88 CALM      30.31R
ELIZABETH CITY CLEAR     37  32  82 CALM      30.30R
AHOSKIE*       CLEAR     30  29  97 CALM      30.32R
EDENTON*         N/A     33  32  96 CALM      30.31R
CURRITUCK*     CLEAR     36  35  96 CALM      30.31R
KILL DEVIL HLS CLEAR     41  41  98 CALM      30.28R
MANTEO         CLEAR     36  36 100 CALM      30.30R FOG
CAPE HATTERAS  CLEAR     44  41  89 N5        30.30R
TARBORO*       MOSUNNY   31  31  99 CALM      30.32S
GOLDSBORO      FOG       33  32  98 W1        30.31R VSB<1/4
WASHINGTON     CLEAR     32  31  94 CALM      30.32R
GREENVILLE     FOG       32  32 100 CALM      30.32R VSB 1
NEW BERN       FOG       34  31  88 CALM      30.33R VSB<1/4
WILMINGTON     CLEAR     35  34  96 CALM      30.31R
$$

VAZ048-261300-
ELSEWHERE

CITY           SKY/WX    TMP DP  RH WIND       PRES   REMARKS
HARRISBURG PA  CLEAR     26  23  88 CALM      30.27R
BALTIMORE      PTCLDY    29  26  89 CALM      30.27S
ANNAPOLIS      CLEAR     33  29  85 CALM      30.29R
ANDREWS AFB    CLEAR     31  28  89 S2        30.28R
PHILADELPHIA   CLEAR     38  28  67 W12       30.29R
HENDERSON NC   PTCLDY    29  27  94 CALM      30.29S
GREENSBORO     PTCLDY    30  27  88 CALM      30.29R
ROCKY MOUNT    FOG       31  29  92 CALM      30.31R VSB 1
$$

VAZ100-261300-
MARINE

STATION/POSITION TIME  TEMP    WIND        PRES    WAVE   SWELL
                       AIR SEA DIR/SP/G            HT/PER HT/PER
                 (UTC) (F)     (DEG/KT/KT) (MB)    (FT/S) (FT/S)
CAPE MAY NJ      1200   41 45  300/  2/  7 1025.0R
LEWES DE         1200   39 45  300/  7/  9 1025.4R
15NM E FENWICK I 1200   43 45              1025.1R   2/ 8
OCEAN-CITY-INLET 1200   37 46  290/  5/  6 1025.2R
WACHAPREAGUE VA  1200   35 47  300/  1/  3 1026.0R
THOMAS POINT MD  1200   39 43  310/  2/  3 1026.8R
GOOSES REEF MD   1200   40     VRB  2/  4  1025.1R   0
COVE POINT MD    1200   38     300/  2/  3 1025.8R
SOLOMONS ISLAND  1200      43                N/A
BISHOPS HEAD MD  1200   41 44  300/  3/  3 1025.2R
PINEY POINT MD   1200          350/  1/  2   N/A
POTOMAC MD       1200   41 43  300/  4/  6 1025.3R   0
CAMBRIDGE MD     1200   34 42   CALM  /  1 1025.7R
LEWISETTA VA     1200   35 44  270/  4/  5 1026.1R
RAPPAHANNOCK LGT 1200          170/  3/  3 1026.5R
STINGRAY PT      1200   42 44  260/  2/  4 1026.6R   0
YORK RVR RNG VA  1200   43      CALM  /  1 1025.5R
YORKTOWN VA      1200   38 46   CALM  /  1 1025.8R
JAMESTOWN VA     1200   39 45  290/  4/  6   N/A     0
DOMINION TERM VA 1200   45      70/  3/  4 1025.9R
KIPTOPEKE VA     1200      50   90/  2/  2   N/A
CHES BAY BRIDGE  1200   45 45   50/  4/  5 1025.3R
CAPE HENRY VA    1200   45      60/  5/  6 1024.6R
CHESAPEAKE LGHT  1100   47      60/ 10/ 11 1025.7R
WILLOUBY STN VA  1200   45      80/  4/  4 1026.3R
S CRANEY ISL VA  1200           60/  2/  3 1025.8R
CAPE HENRY BUOY  1200      48                N/A     2/ 8
1ST LANDING BUOY 1200   46 45   70/  4/  6 1025.6R   1
CAPE CHARLES BUO 1200      47                N/A     2/ 8   2/ 8
64NM E OF VA BCH 1200   51 52   20/  4/  6 1025.0R   3/ 8   2/ 8
DUCK PIER NC     1200   47 50  350/  2/  3 1025.1R
44100 DUCK FRF   1200      50                N/A     2/ 8
44056 DUCK FRF   1200      50                N/A     2/ 8
OREGON INLET NC  1200   43 54  320/  2/  2 1025.8R
HATTERAS NC      1200   50 56   10/  6/  7 1026.1R
DIAMOND SHLS NC  1200   55                 1025.5R   3/ 7
CAPE LOOKOUT NC  1100   50      10/  7/  8 1025.3R
$$


USA.gov is the U.S. government's official web portal to all federal, state and local government web resources and services.